Retour au catalogue

DMSP 5D-2 F12

USA 106

ActifMétéoSSO
NORAD 23233·PAYLOAD·🇺🇸 United States

Lancé Aug 29, 1994 depuis Vandenberg Space Force Base

Loading…

Prochains Passages (prochaines 24 heures)

TLE

FraisSource: Space-Track

Époque: Sep 14, 2026, 22:34 UTC

1 23233U 94057A   26257.94034223  .00000024  00000-0  33668-4 0  9993
2 23233  98.6597 305.7603 0011283  21.5534 338.6113 14.16082497654673

Suivez DMSP 5D-2 F12 en temps réel avec AllMySat

Download on the App Store